Location: Newark
(45.5203°N, 11.3397°E)
Time: 02:09:08
(UTC+00:00)

Envisat - Visible Passes

Search period start: 19 October 2019 00:00
Search period end: 29 October 2019 00:00
Orbit: 764 x 766 km, 98.1° (Epoch: 18 October)

Date Brightness Start Highest point End Pass type
(mag) Time Alt. Az. Time Alt. Az. Time Alt. Az.
19 Oct 5.0 18:08:38 10° SSW 18:13:05 30° W 18:17:33 10° NNW visible
20 Oct 3.5 17:31:06 10° S 17:36:08 64° W 17:41:13 10° NNW visible
21 Oct 3.0 16:54:23 10° SSE 16:59:23 61° ENE 17:04:25 10° N visible
21 Oct 5.8 18:35:24 10° SW 18:38:49 18° W 18:42:16 10° NW visible
22 Oct 6.1 05:02:04 10° NE 05:05:29 18° E 05:08:54 10° SE visible
22 Oct 4.5 17:57:03 10° SSW 18:01:45 38° W 18:06:28 10° NNW visible
23 Oct 3.1 17:19:47 10° S 17:24:51 80° WSW 17:29:58 10° NNW visible
23 Oct 6.3 19:04:20 10° W 19:04:41 10° W 19:05:02 10° W visible
24 Oct 3.2 16:43:17 10° SE 16:48:10 49° ENE 16:53:04 10° N visible
24 Oct 5.4 18:23:30 10° SW 18:27:27 22° W 18:31:25 10° NW visible
25 Oct 6.3 04:51:24 10° NE 04:54:05 14° E 04:56:46 10° ESE visible
25 Oct 4.1 17:45:33 10° S 17:50:25 47° W 17:55:20 10° NNW visible
26 Oct 2.9 17:08:31 10° SSE 17:13:36 82° ENE 17:18:42 10° NNW visible
26 Oct 6.1 18:50:55 10° WSW 18:53:15 13° W 18:55:36 10° WNW visible
27 Oct 5.8 05:15:46 10° NE 05:19:53 24° E 05:23:59 10° SSE visible
27 Oct 5.1 18:11:46 10° SSW 18:16:05 28° W 18:20:26 10° NW visible
28 Oct 6.6 04:41:14 10° ENE 04:42:40 11° E 04:44:06 10° ESE visible
28 Oct 3.6 17:34:07 10° S 17:39:07 59° W 17:44:09 10° NNW visible
